Vorticity
nan nan nan nan nan nan nan nan nan nan nan nan nan nan nan nan nan nan nan nan nan nan nan nan nan nan nan nan nan nan nan nan nan nan nan nan nan nan nan nan nan nan nan nan nan nan nan nan nan
nan 6 6 8 6 6 7 7 8 5 8 7 5 6 7 6 8 10 8 11 8 5 6 6 7 7 5 5 5 6 5 5 6 5 5 5 5 6 5 5 5 5 6 6 6 6 6 6 nan
nan 6 8 8 6 6 7 8 6 9 5 2 5 7 9 5 10 5 8 13 6 5 6 7 8 7 5 4 5 6 5 6 6 5 5 5 5 5 5 5 5 6 5 5 5 6 6 6 nan
nan 6 8 8 6 5 6 8 8 6 4 7 5 5 6 8 9 11 13 6 6 6 7 7 5 5 6 6 5 6 5 6 5 5 4 5 5 5 5 5 5 5 5 5 5 6 6 6 nan
nan 8 8 6 5 7 7 9 8 4 8 7 7 6 5 7 13 15 7 6 5 5 6 7 5 6 6 5 5 6 8 7 5 4 5 5 5 5 5 5 5 5 5 4 5 6 6 6 nan
nan 8 7 7 6 7 9 10 5 5 7 5 9 9 4 8 12 8 6 6 6 5 5 6 6 7 7 6 7 6 6 6 5 5 5 5 5 5 5 5 5 4 4 5 5 6 6 6 nan
nan 9 9 6 5 8 11 7 6 7 4 8 6 4 6 9 9 8 7 7 7 6 6 6 7 7 7 5 7 6 6 6 7 6 5 5 6 5 5 4 5 4 4 6 7 8 7 6 nan
nan 8 8 7 9 7 10 4 6 8 5 7 8 7 8 14 11 6 6 6 6 6 7 6 7 7 8 7 6 5 6 6 8 8 6 5 3 4 4 5 5 4 5 6 6 8 7 6 nan
nan 7 7 9 6 6 8 6 5 8 10 6 7 6 14 16 6 5 4 5 6 7 6 6 6 6 6 6 6 6 6 5 6 6 4 4 5 5 4 5 5 5 5 5 6 6 7 5 nan
nan 9 8 5 5 9 8 7 7 7 4 6 6 8 15 10 5 4 3 3 5 6 5 5 5 5 5 5 6 5 5 5 5 6 5 5 6 6 6 4 3 4 4 3 4 6 7 7 nan
nan 6 9 8 9 10 7 8 8 5 6 11 7 9 8 5 6 5 6 6 6 4 5 7 6 6 6 5 5 6 6 6 7 7 6 6 6 6 6 6 5 4 4 6 4 4 5 7 nan
nan 8 9 8 9 10 8 6 8 3 3 11 15 12 10 7 5 5 5 6 7 7 6 6 6 6 5 5 7 7 7 7 7 7 6 5 6 6 6 6 6 7 7 7 6 6 6 5 nan
nan 10 7 7 8 7 8 6 8 6 8 9 14 13 10 6 5 6 7 7 8 7 7 7 6 6 6 6 6 7 7 7 7 7 6 6 7 6 6 6 7 8 7 7 7 6 6 6 nan
nan 8 7 6 5 7 7 6 7 5 10 12 7 8 10 9 6 4 9 8 6 7 7 7 7 7 6 6 6 6 7 8 7 7 7 7 6 7 6 7 8 7 7 8 6 7 7 7 nan
nan 6 8 8 8 6 7 5 5 6 12 12 8 9 9 10 10 7 6 8 7 7 8 8 7 7 6 6 6 7 7 7 7 8 8 7 6 7 7 7 7 7 7 7 6 7 7 7 nan
nan 8 9 8 7 8 8 8 4 6 13 9 10 11 12 11 8 8 8 9 9 9 8 7 8 8 6 6 6 7 8 7 7 8 8 8 7 7 7 8 8 8 6 6 7 7 8 7 nan
nan 11 5 9 5 8 8 8 3 5 10 6 6 9 12 13 14 11 9 9 8 7 8 8 8 8 7 7 7 8 8 7 8 8 8 8 8 8 8 8 8 8 7 7 7 7 8 8 nan
nan 7 10 10 8 7 7 5 3 4 8 7 8 9 11 11 6 9 14 14 11 10 8 8 9 8 7 6 7 8 8 8 9 9 9 8 8 8 8 8 8 7 6 7 7 7 7 8 nan
nan 10 8 9 12 10 7 4 5 7 6 6 8 9 10 8 6 10 14 18 15 11 10 9 8 7 4 5 7 8 8 8 9 10 10 9 8 7 6 7 8 7 7 7 7 7 8 8 nan
nan 7 5 8 11 10 9 7 6 8 8 7 7 7 9 8 8 9 12 18 20 15 11 10 9 8 5 6 7 10 10 9 9 10 9 8 8 8 8 7 8 7 8 8 8 7 7 8 nan
nan 8 9 8 6 6 8 10 7 7 6 6 8 8 8 9 8 8 10 12 16 17 16 12 12 10 9 7 5 7 8 9 9 9 9 10 9 8 8 8 8 8 8 8 8 9 6 7 nan
nan 8 11 7 9 7 6 14 9 10 3 3 6 8 8 9 9 9 9 10 12 14 18 17 15 11 11 8 6 7 8 7 7 9 9 10 10 9 9 9 9 8 8 8 8 8 8 8 nan
nan 12 8 6 8 8 7 13 9 9 9 7 5 6 8 8 8 8 9 10 11 12 14 14 14 14 13 12 9 9 9 9 9 8 8 9 10 10 9 9 9 9 8 8 9 9 8 5 nan
nan 0 6 10 8 8 12 6 8 12 9 8 7 7 7 8 8 8 10 9 10 11 11 11 9 11 13 14 13 12 11 10 9 8 9 9 9 10 10 10 10 9 9 9 9 9 8 7 nan
nan 4 4 7 11 9 9 9 9 10 13 15 11 6 6 8 8 8 8 9 8 10 12 12 9 10 11 11 11 12 12 11 10 10 9 10 11 8 6 10 12 12 11 9 9 10 10 9 nan
nan 5 11 12 7 9 10 5 8 9 13 14 11 9 7 7 8 8 8 9 8 9 10 10 9 9 10 9 9 10 11 11 8 10 10 8 9 8 8 10 10 11 11 11 10 10 10 10 nan
nan 9 7 6 10 12 7 7 12 7 8 8 8 7 7 6 7 7 7 9 8 7 8 9 9 8 8 9 8 8 9 10 8 8 11 9 8 8 9 10 10 11 12 11 11 10 10 10 nan
nan 8 3 11 13 7 8 10 15 12 6 6 7 6 6 6 7 6 7 7 7 8 8 8 8 8 8 8 8 8 7 8 9 8 7 9 8 8 9 9 10 10 12 13 12 9 10 10 nan
nan 5 8 14 9 11 9 7 15 18 17 9 6 7 7 7 6 6 7 7 8 8 8 7 7 7 8 7 8 8 8 8 8 8 7 8 9 8 9 9 9 9 10 11 13 12 11 9 nan
nan nan nan nan nan nan nan nan nan nan nan nan nan nan nan nan nan nan nan nan nan nan nan nan nan nan nan nan nan nan nan nan nan nan nan nan nan nan nan nan nan nan nan nan nan nan nan nan nan
CAPE
0 0 0 0 0 0 0 0 0 0 0 0 0 0 0 56 152 0 425 671 846 1119 1511 1509 1960 1798 1830 1715 1625 1524 1940 1843 1467 927 760 823 832 837 756 725 768 769 602 713 738 720 986 1286 1358
0 0 0 0 0 0 0 0 0 0 0 0 0 0 0 375 496 753 822 811 837 1265 1430 1435 1967 1758 1788 1660 1466 1494 1833 1630 1384 953 886 843 789 751 758 754 682 533 443 455 538 560 700 1113 896
0 0 0 0 0 0 0 0 0 0 0 0 0 0 0 419 417 801 564 927 1090 1426 1490 1455 1863 1835 1758 1593 1503 1549 1600 1458 1397 953 767 745 705 638 550 488 430 465 561 570 515 508 446 489 624
0 0 0 0 0 0 0 0 0 0 0 0 0 0 0 12 527 610 887 1042 1138 1287 1385 1801 1986 1817 1988 1968 1407 1464 1418 1459 1144 901 724 631 526 390 389 489 689 912 938 558 540 539 335 350 378
0 0 0 0 0 0 0 0 0 0 0 0 0 0 0 3 118 767 953 1011 1076 1188 1455 1498 1956 1800 1918 1914 1734 1549 1367 1425 997 774 725 471 326 281 471 690 816 785 567 410 367 529 351 232 223
0 0 0 0 0 0 0 0 0 0 0 0 0 0 0 0 582 754 811 833 979 1139 1374 1440 1589 1540 1497 1590 1651 1531 1407 1402 1322 1240 747 413 253 348 530 691 774 657 301 124 92 242 283 301 278
0 0 0 0 0 0 0 0 0 0 0 0 0 0 0 0 305 521 472 589 711 963 1122 1311 1190 1078 1151 1147 1212 1423 1570 1628 1517 1469 1294 780 584 441 522 646 654 323 72 13 84 153 159 147 86
0 0 0 0 0 0 0 0 0 0 0 0 0 0 0 0 238 353 358 456 582 681 817 866 885 831 856 907 799 937 1052 1184 1114 1088 712 281 345 638 590 529 594 109 0 48 85 9 60 3 0
0 0 0 0 0 0 0 0 0 0 0 0 0 0 0 0 189 121 115 181 361 333 427 568 590 561 552 652 642 575 581 586 443 405 186 93 190 141 78 112 45 57 1 43 19 0 0 0 0
0 0 0 0 0 0 0 0 0 0 0 0 0 0 0 1 88 20 13 8 7 24 77 183 346 349 302 400 514 428 383 390 166 255 135 65 5 15 45 6 0 0 0 0 0 0 0 0 0
0 0 0 0 0 0 0 0 0 0 0 0 0 0 0 9 78 2 0 0 0 0 3 0 75 90 148 215 92 43 3 1 1 7 10 0 0 1 0 0 0 0 0 0 0 0 0 0 0
0 0 0 0 0 0 0 0 0 0 0 0 0 0 0 0 49 48 8 2 1 0 0 0 14 0 0 1 0 0 0 0 0 0 0 0 0 0 0 0 0 0 0 0 0 0 0 0 0
0 0 0 0 0 0 0 0 0 0 0 0 0 0 0 0 0 0 0 0 0 0 1 2 2 0 0 0 0 0 0 0 0 0 0 0 0 0 0 0 0 0 0 0 0 0 0 0 0
0 0 0 0 0 0 0 0 0 0 0 0 0 0 0 0 0 0 0 0 0 0 0 0 1 0 0 0 0 0 0 0 0 0 0 0 0 0 2 0 0 0 0 0 0 0 0 0 0
0 0 0 0 0 0 0 0 0 0 0 0 0 0 0 0 0 0 0 0 0 0 0 0 0 0 0 0 0 0 0 0 0 0 0 0 0 0 0 0 0 0 0 0 0 0 0 0 0
0 0 0 0 0 0 0 0 0 0 0 0 0 0 0 0 0 0 0 0 0 0 0 0 0 0 0 0 0 0 0 0 0 0 0 0 0 0 0 0 0 0 0 0 0 0 0 0 0
0 0 0 0 0 0 0 0 0 0 0 0 0 0 0 0 0 0 0 0 0 0 0 0 0 0 0 0 0 0 0 0 0 0 0 0 0 0 0 0 0 0 0 0 0 0 0 0 0
0 0 0 0 0 0 0 0 0 0 0 0 0 0 0 0 0 0 0 0 0 0 0 0 0 0 0 0 0 0 0 0 0 0 0 0 0 0 0 0 0 0 0 0 0 0 0 0 0
0 0 0 0 0 0 0 0 0 0 0 0 0 0 0 0 0 0 0 0 0 0 0 0 0 0 0 0 0 0 0 0 0 0 0 0 0 0 0 0 0 0 0 0 0 0 0 0 0
0 0 0 0 0 0 0 0 0 0 0 0 0 0 0 0 0 0 0 0 0 0 0 0 0 0 0 0 0 0 0 0 0 0 0 0 0 0 0 0 0 0 0 0 0 0 0 0 0
0 0 0 0 0 0 0 0 0 0 0 0 0 0 0 0 0 0 0 0 0 0 0 0 0 0 0 0 0 0 0 0 0 0 0 0 0 0 0 0 0 0 0 0 0 0 0 0 0
0 0 0 0 0 0 0 0 0 0 0 0 0 0 0 0 0 0 0 0 0 0 0 0 0 0 0 0 0 0 0 0 0 0 0 0 0 0 0 0 0 0 0 0 0 0 0 0 0
0 0 0 0 0 0 0 0 0 0 0 0 0 0 0 0 0 0 0 0 0 0 0 1 1 0 0 0 0 0 0 0 0 0 0 0 0 0 0 0 0 0 0 0 0 0 0 0 0
0 0 0 0 0 0 0 0 0 0 0 0 0 0 0 0 0 0 0 0 0 0 0 0 0 0 0 0 0 0 0 0 0 0 0 0 0 0 0 0 0 0 0 0 0 0 0 0 0
0 0 0 0 0 0 0 0 0 0 0 0 0 0 0 0 0 0 0 0 0 0 0 0 0 0 0 0 0 0 0 0 0 0 0 0 0 0 0 0 0 0 0 0 0 0 0 0 0
0 0 0 0 0 0 0 0 0 0 0 0 0 0 0 0 0 0 0 0 0 0 0 0 0 0 0 0 0 0 0 0 0 0 0 0 0 0 0 0 0 0 0 0 0 0 0 0 0
0 0 0 0 0 0 0 0 0 0 0 0 0 0 0 0 0 0 0 0 0 0 0 0 0 0 0 0 0 0 0 0 0 0 0 0 0 0 0 0 0 0 0 0 0 0 0 0 0
0 0 0 0 0 0 0 0 0 0 0 0 0 0 0 0 0 0 0 0 0 0 0 0 0 0 0 0 0 0 0 0 0 0 0 0 0 0 0 0 0 0 0 0 0 0 0 0 0
0 0 0 0 0 0 0 0 0 0 0 0 0 0 0 0 0 0 0 0 0 0 0 0 0 0 0 0 0 0 0 0 0 0 0 0 0 0 0 0 0 0 0 0 0 0 0 0 0
0 0 0 0 0 0 0 0 0 0 0 0 0 0 0 0 0 0 0 0 0 0 0 0 0 0 0 0 0 0 0 0 0 0 0 0 0 0 0 0 0 0 0 0 0 1 1 1 0